This is the latest recevied weather packets stored in our database for station/object KE9DBJ-13. If no packets are shown the sender has not sent any weather packets the latest 10 day(s).
| Time | Temp. | Humidity | Pressure | Rain* | Wind** | Luminosity | Snow |
|---|---|---|---|---|---|---|---|
| 1777776002 | 3.33° C | 86% | 1019.5 hPa | 0 mm | - | - | - |
| 1777775402 | 3.89° C | 83% | 1019.3 hPa | 0 mm | - | - | - |
| 1777774802 | 3.89° C | 80% | 1019.1 hPa | 0 mm | - | - | - |
| 1777774203 | 4.44° C | 76% | 1019 hPa | 0 mm | - | - | - |
| 1777773603 | 4.44° C | 73% | 1018.9 hPa | 0 mm | - | - | - |
| 1777773003 | 5° C | 71% | 1018.6 hPa | 0 mm | - | - | - |
| 1777772403 | 5.56° C | 69% | 1018.6 hPa | 0 mm | - | - | - |
| 1777771803 | 6.11° C | 65% | 1018.4 hPa | 0 mm | - | - | - |
| 1777771203 | 6.67° C | 64% | 1018.2 hPa | 0 mm | - | - | - |
| 1777770603 | 7.22° C | 53% | 1018 hPa | 0 mm | - | - | - |
| 1777770002 | 7.78° C | 54% | 1018 hPa | 0 mm | - | - | - |
| 1777769402 | 8.33° C | 49% | 1017.9 hPa | 0 mm | - | - | - |
| 1777768802 | 8.89° C | 49% | 1017.6 hPa | 0 mm | - | - | - |
| 1777768202 | 10° C | 43% | 1017.6 hPa | 0 mm | - | - | - |
| 1777767602 | 10° C | 41% | 1017.4 hPa | 0 mm | - | - | - |
| 1777767002 | 10.56° C | 42% | 1017.2 hPa | 0 mm | - | - | - |
| 1777766402 | 11.11° C | 40% | 1017.2 hPa | 0 mm | - | - | - |
| 1777765802 | 12.22° C | 38% | 1017 hPa | 0 mm | - | - | - |
| 1777765202 | 12.78° C | 36% | 1016.9 hPa | 0 mm | - | - | - |
| 1777764602 | 13.33° C | 36% | 1016.9 hPa | 0 mm | - | - | - |
| 1777764003 | 12.78° C | 36% | 1016.9 hPa | 0 mm | - | - | - |
| 1777763403 | 12.78° C | 38% | 1016.9 hPa | 0 mm | - | - | - |
| 1777762803 | 12.78° C | 37% | 1016.7 hPa | 0 mm | - | - | - |
| 1777762203 | 12.78° C | 37% | 1016.9 hPa | 0 mm | - | - | - |
| 1777761603 | 12.78° C | 36% | 1016.9 hPa | 0 mm | - | - | - |
* Rain latest hour (hover to see other rain measurements)
** Current wind speed in m/s (hover to see current wind gust speed)